TimeCST,TemperatureF,Dew PointF,Humidity,Sea Level PressureIn,VisibilityMPH,Wind Direction,Wind SpeedMPH,Gust SpeedMPH,PrecipitationIn,Events,Conditions,WindDirDegrees,DateUTC
12:15 AM,39.0,10.4,31,29.99,10.0,WNW,27.6,32.2,N/A,,Clear,290,2013-01-19 06:15:00
12:35 AM,39.4,10.2,30,30.00,10.0,WNW,24.2,32.2,N/A,,Clear,300,2013-01-19 06:35:00
12:55 AM,39.9,9.7,29,30.01,10.0,WNW,16.1,31.1,N/A,,Clear,300,2013-01-19 06:55:00
1:15 AM,37.4,10.0,32,30.00,10.0,WNW,19.6,-,N/A,,Clear,290,2013-01-19 07:15:00
1:35 AM,37.6,10.2,32,30.01,10.0,West,18.4,-,N/A,,Clear,280,2013-01-19 07:35:00
1:55 AM,37.4,10.0,32,30.01,10.0,WNW,19.6,-,N/A,,Clear,290,2013-01-19 07:55:00
2:15 AM,37.6,10.0,32,30.02,10.0,WNW,19.6,-,N/A,,Clear,290,2013-01-19 08:15:00
2:35 AM,38.3,9.7,31,30.03,10.0,WNW,24.2,28.8,N/A,,Clear,290,2013-01-19 08:35:00
2:55 AM,36.5,10.2,34,30.04,10.0,WNW,17.3,-,N/A,,Clear,300,2013-01-19 08:55:00
3:15 AM,36.1,10.2,34,30.04,10.0,WNW,18.4,-,N/A,,Clear,290,2013-01-19 09:15:00
3:35 AM,34.9,10.2,36,30.04,10.0,WNW,19.6,-,N/A,,Clear,290,2013-01-19 09:35:00
3:55 AM,36.0,9.5,33,30.05,10.0,WNW,16.1,-,N/A,,Clear,290,2013-01-19 09:55:00
4:15 AM,35.8,9.5,34,30.05,10.0,WNW,17.3,-,N/A,,Clear,290,2013-01-19 10:15:00
4:35 AM,35.6,9.5,34,30.05,10.0,WNW,17.3,-,N/A,,Clear,290,2013-01-19 10:35:00
4:55 AM,34.2,9.5,36,30.06,10.0,West,15.0,-,N/A,,Clear,280,2013-01-19 10:55:00
5:15 AM,32.7,10.4,40,30.07,10.0,WNW,16.1,-,N/A,,Clear,290,2013-01-19 11:15:00
5:35 AM,33.3,10.4,39,30.08,10.0,WNW,17.3,-,N/A,,Clear,290,2013-01-19 11:35:00
5:55 AM,32.5,10.4,40,30.10,10.0,WNW,15.0,-,N/A,,Clear,290,2013-01-19 11:55:00
7:15 AM,32.2,10.8,41,30.12,10.0,WNW,17.3,21.9,N/A,,Clear,300,2013-01-19 13:15:00
7:55 AM,32.0,10.6,41,30.13,10.0,WNW,16.1,-,N/A,,Clear,300,2013-01-19 13:55:00
8:15 AM,31.8,10.4,41,30.14,10.0,WNW,17.3,-,N/A,,Clear,290,2013-01-19 14:15:00
8:35 AM,32.2,10.4,40,30.14,10.0,WNW,18.4,-,N/A,,Clear,290,2013-01-19 14:35:00
9:35 AM,38.3,9.7,31,30.17,10.0,WNW,17.3,-,N/A,,Clear,300,2013-01-19 15:35:00
9:55 AM,40.3,9.5,28,30.18,10.0,WNW,17.3,25.3,N/A,,Clear,300,2013-01-19 15:55:00
10:15 AM,42.3,9.5,26,30.19,10.0,WNW,17.3,25.3,N/A,,Clear,300,2013-01-19 16:15:00
10:35 AM,44.4,9.5,24,30.20,10.0,NW,16.1,24.2,N/A,,Clear,310,2013-01-19 16:35:00
10:55 AM,46.4,8.8,22,30.20,10.0,NW,18.4,21.9,N/A,,Clear,310,2013-01-19 16:55:00
11:15 AM,47.8,7.7,20,30.19,10.0,WNW,21.9,25.3,N/A,,Clear,300,2013-01-19 17:15:00
11:35 AM,49.5,7.9,19,30.19,10.0,NW,18.4,23.0,N/A,,Clear,310,2013-01-19 17:35:00
11:55 AM,50.4,5.9,16,30.19,10.0,NW,17.3,23.0,N/A,,Clear,310,2013-01-19 17:55:00
12:15 PM,51.1,6.1,16,30.19,10.0,WNW,17.3,24.2,N/A,,Clear,300,2013-01-19 18:15:00
12:35 PM,51.8,5.7,15,30.17,10.0,NW,17.3,27.6,N/A,,Clear,310,2013-01-19 18:35:00
12:55 PM,52.3,5.9,15,30.17,10.0,WNW,18.4,25.3,N/A,,Clear,290,2013-01-19 18:55:00
1:15 PM,52.9,5.5,15,30.16,10.0,NW,16.1,23.0,N/A,,Clear,310,2013-01-19 19:15:00
1:35 PM,52.7,3.9,14,30.15,10.0,NW,19.6,26.5,N/A,,Clear,310,2013-01-19 19:35:00
1:55 PM,52.7,4.6,14,30.15,10.0,NNW,16.1,25.3,N/A,,Clear,330,2013-01-19 19:55:00
2:15 PM,53.2,4.8,14,30.15,10.0,NNW,11.5,17.3,N/A,,Clear,330,2013-01-19 20:15:00
2:35 PM,54.0,3.4,13,30.15,10.0,NW,12.7,21.9,N/A,,Clear,310,2013-01-19 20:35:00
2:55 PM,53.8,3.7,13,30.15,10.0,NNW,15.0,23.0,N/A,,Clear,340,2013-01-19 20:55:00
3:15 PM,53.8,4.8,14,30.15,10.0,NNW,12.7,18.4,N/A,,Clear,330,2013-01-19 21:15:00
3:35 PM,53.8,6.4,15,30.15,10.0,NNW,15.0,19.6,N/A,,Clear,330,2013-01-19 21:35:00
3:55 PM,53.6,7.2,15,30.14,10.0,North,15.0,20.7,N/A,,Clear,350,2013-01-19 21:55:00
4:15 PM,52.7,7.3,16,30.13,10.0,NNW,18.4,-,N/A,,Clear,330,2013-01-19 22:15:00
4:35 PM,52.2,6.8,16,30.14,10.0,NNW,11.5,-,N/A,,Clear,340,2013-01-19 22:35:00
4:55 PM,50.7,7.7,18,30.14,10.0,North,5.8,-,N/A,,Clear,350,2013-01-19 22:55:00
5:15 PM,49.5,5.7,17,30.15,10.0,NNW,9.2,12.7,N/A,,Clear,340,2013-01-19 23:15:00
5:35 PM,44.8,7.7,22,30.15,10.0,North,9.2,-,N/A,,Clear,360,2013-01-19 23:35:00
5:55 PM,41.9,7.9,25,30.15,10.0,North,8.1,-,N/A,,Clear,350,2013-01-19 23:55:00
6:15 PM,42.1,7.9,25,30.15,10.0,North,13.8,17.3,N/A,,Clear,350,2013-01-20 00:15:00
6:35 PM,41.2,8.4,26,30.16,10.0,North,12.7,-,N/A,,Clear,350,2013-01-20 00:35:00
6:55 PM,40.6,8.4,27,30.17,10.0,NNW,11.5,-,N/A,,Clear,340,2013-01-20 00:55:00
7:15 PM,39.7,8.6,28,30.17,10.0,NNW,10.4,-,N/A,,Clear,340,2013-01-20 01:15:00
7:35 PM,38.3,8.8,30,30.18,10.0,NW,8.1,-,N/A,,Clear,320,2013-01-20 01:35:00
7:55 PM,38.5,9.0,30,30.18,10.0,NNW,10.4,-,N/A,,Clear,330,2013-01-20 01:55:00
8:15 PM,37.8,9.1,31,30.19,10.0,NW,5.8,-,N/A,,Clear,320,2013-01-20 02:15:00
8:35 PM,33.8,9.1,36,30.19,10.0,NNW,4.6,-,N/A,,Clear,330,2013-01-20 02:35:00
8:55 PM,35.2,9.5,34,30.18,10.0,NNW,10.4,-,N/A,,Clear,340,2013-01-20 02:55:00
9:15 PM,34.3,9.5,36,30.18,10.0,North,10.4,-,N/A,,Clear,350,2013-01-20 03:15:00
9:35 PM,34.0,10.2,37,30.18,10.0,NNE,5.8,-,N/A,,Clear,20,2013-01-20 03:35:00
9:55 PM,32.5,10.9,41,30.17,10.0,Calm,Calm,-,N/A,,Clear,0,2013-01-20 03:55:00
10:15 PM,31.3,11.7,44,30.17,10.0,Calm,Calm,-,N/A,,Clear,0,2013-01-20 04:15:00
10:35 PM,28.9,12.4,50,30.17,10.0,Calm,Calm,-,N/A,,Clear,0,2013-01-20 04:35:00
10:55 PM,29.1,12.9,51,30.17,10.0,SSW,5.8,-,N/A,,Clear,210,2013-01-20 04:55:00
11:15 PM,28.4,13.6,54,30.17,10.0,SW,6.9,-,N/A,,Clear,230,2013-01-20 05:15:00
11:35 PM,27.7,13.3,55,30.17,10.0,SSW,4.6,-,N/A,,Clear,210,2013-01-20 05:35:00
11:55 PM,27.0,13.1,56,30.16,10.0,SSW,5.8,-,N/A,,Clear,210,2013-01-20 05:55:00